User: anonymous   Login
Location: Coffee Creek Observatory
(38.8077°N, 94.7179°W)
Time: 07:30:56
(UTC-05:00)
Language:

Lacrosse 4 Rocket - Orbit

View from above orbital plane
View from above orbital plane
View from above satellite
View from above satellite

Ground track
Ground track

The orbit data is extracted from the following two-line orbital elements,

1 26474U 00047B   16146.51109364  .00000254  00000-0  33454-4 0  9995
2 26474  67.9937 198.3551 0054885  24.6994 335.6757 14.95182856857423
Epoch (UTC): 25 May 2016 12:15:58
Eccentricity: 0.0054885
inclination: 67.9937°
perigee height: 543 km
apogee height: 620 km
right ascension of ascending node: 198.3551°
argument of perigee: 24.6994°
revolutions per day: 14.95182856
mean anomaly at epoch: 335.6757°
orbit number at epoch: 85742

The dashed part of the orbit path shows where the satellite is in the earth's shadow,  

DLR